Hourly Weather Kitnowko

Today, 23 October, Friday

Time Temperature Precipitation Wind Pressure Humidity
00:00 +12°C° 0 mm 4 mps 751 mmHg 87%
01:00 +12°C° 0 mm 5 mps 750 mmHg 86%
02:00 +12°C° 0 mm 5 mps 750 mmHg 86%
03:00 +12°C° 0 mm 5 mps 750 mmHg 87%
04:00 +12°C° 0 mm 5 mps 749 mmHg 87%
05:00 +12°C° 0 mm 5 mps 750 mmHg 89%
06:00 +12°C° 0 mm 5 mps 750 mmHg 91%
07:00 +12°C° 0 mm 4 mps 750 mmHg 93%
08:00 +13°C° 0 mm 4 mps 750 mmHg 88%
09:00 +14°C° 0 mm 4 mps 750 mmHg 83%
10:00 +15°C° 0 mm 5 mps 750 mmHg 78%
11:00 +15°C° 0 mm 4 mps 750 mmHg 74%
12:00 +17°C° 0 mm 4 mps 750 mmHg 70%
13:00 +17°C° 0 mm 4 mps 750 mmHg 66%
14:00 +13°C° 0 mm 1 mps 749 mmHg 88%
15:00 +14°C° 0 mm 2 mps 749 mmHg 81%
16:00 +15°C° 0 mm 2 mps 750 mmHg 74%
17:00 +15°C° 0 mm 2 mps 750 mmHg 77%
18:00 +14°C° 0 mm 2 mps 750 mmHg 79%
19:00 +14°C° 0 mm 2 mps 750 mmHg 82%
20:00 +14°C° 0.1 mm 2 mps 750 mmHg 83%
21:00 +14°C° 0.1 mm 1 mps 750 mmHg 85%
22:00 +13°C° 0.1 mm 1 mps 750 mmHg 87%
23:00 +13°C° 0.5 mm 1 mps 750 mmHg 89%

Tomorrow, 24 October, Saturday

Time Temperature Precipitation Wind Pressure Humidity
00:00 +13°C° 0.5 mm 1 mps 750 mmHg 91%
01:00 +13°C° 0.5 mm 1 mps 750 mmHg 92%
02:00 +12°C° 0.2 mm 1 mps 750 mmHg 93%
03:00 +12°C° 0.2 mm 1 mps 750 mmHg 94%
04:00 +12°C° 0.2 mm 2 mps 750 mmHg 95%
05:00 +12°C° 0 mm 2 mps 750 mmHg 94%
06:00 +11°C° 0 mm 3 mps 750 mmHg 93%
07:00 +11°C° 0 mm 3 mps 751 mmHg 92%
08:00 +12°C° 0 mm 4 mps 751 mmHg 89%
09:00 +12°C° 0 mm 4 mps 751 mmHg 85%
10:00 +13°C° 0 mm 5 mps 751 mmHg 82%
11:00 +14°C° 0 mm 5 mps 751 mmHg 80%
12:00 +14°C° 0 mm 6 mps 751 mmHg 77%
13:00 +14°C° 0 mm 6 mps 751 mmHg 74%
14:00 +14°C° 0.1 mm 5 mps 751 mmHg 75%
15:00 +14°C° 0.1 mm 5 mps 752 mmHg 75%
16:00 +13°C° 0.1 mm 4 mps 752 mmHg 76%
17:00 +12°C° 0 mm 4 mps 752 mmHg 79%
18:00 +11°C° 0 mm 3 mps 753 mmHg 83%
19:00 +10°C° 0 mm 2 mps 753 mmHg 86%
20:00 +10°C° 0 mm 3 mps 753 mmHg 87%
21:00 +10°C° 0 mm 3 mps 753 mmHg 88%
22:00 +10°C° 0 mm 3 mps 754 mmHg 89%
23:00 +10°C° 0 mm 3 mps 754 mmHg 90%

Day after tomorrow, 25 October, Sunday

Time Temperature Precipitation Wind Pressure Humidity
00:00 +10°C° 0 mm 3 mps 754 mmHg 90%
01:00 +10°C° 0 mm 3 mps 754 mmHg 90%
02:00 +10°C° 0 mm 3 mps 754 mmHg 91%
03:00 +10°C° 0 mm 3 mps 754 mmHg 91%
04:00 +9°C° 0 mm 3 mps 754 mmHg 91%
05:00 +9°C° 0 mm 3 mps 754 mmHg 92%
06:00 +9°C° 0 mm 3 mps 754 mmHg 93%
07:00 +9°C° 0 mm 3 mps 754 mmHg 94%
08:00 +10°C° 0 mm 3 mps 754 mmHg 89%
09:00 +12°C° 0 mm 4 mps 754 mmHg 84%
10:00 +13°C° 0 mm 4 mps 754 mmHg 78%
11:00 +14°C° 0 mm 4 mps 754 mmHg 75%
12:00 +15°C° 0 mm 4 mps 754 mmHg 71%
13:00 +15°C° 0 mm 4 mps 754 mmHg 67%
14:00 +15°C° 0 mm 4 mps 753 mmHg 71%
15:00 +14°C° 0 mm 3 mps 753 mmHg 74%
16:00 +13°C° 0 mm 3 mps 752 mmHg 78%
17:00 +13°C° 0 mm 3 mps 752 mmHg 80%
18:00 +12°C° 0 mm 4 mps 752 mmHg 83%
19:00 +12°C° 0 mm 4 mps 752 mmHg 85%
20:00 +11°C° 0 mm 4 mps 752 mmHg 85%
21:00 +11°C° 0 mm 4 mps 752 mmHg 85%
22:00 +11°C° 0 mm 4 mps 752 mmHg 85%
23:00 +11°C° 0 mm 4 mps 752 mmHg 87%

, 26 October, Monday

Time Temperature Precipitation Wind Pressure Humidity
00:00 +10°C° 0 mm 4 mps 752 mmHg 88%
01:00 +10°C° 0 mm 4 mps 751 mmHg 89%
02:00 +8°C° 0 mm 4 mps 751 mmHg 90%
03:00 +8°C° 0 mm 4 mps 751 mmHg 92%
04:00 +8°C° 0 mm 4 mps 751 mmHg 93%
05:00 +8°C° 0 mm 4 mps 750 mmHg 93%
06:00 +7°C° 0 mm 4 mps 750 mmHg 93%
07:00 +7°C° 0 mm 4 mps 750 mmHg 94%
08:00 +8°C° 0 mm 5 mps 750 mmHg 88%
09:00 +10°C° 0 mm 5 mps 749 mmHg 82%
10:00 +12°C° 0 mm 5 mps 749 mmHg 76%
11:00 +12°C° 0 mm 5 mps 749 mmHg 74%
12:00 +13°C° 0 mm 5 mps 748 mmHg 72%
13:00 +14°C° 0 mm 5 mps 748 mmHg 70%
14:00 +13°C° 0 mm 5 mps 748 mmHg 73%
15:00 +13°C° 0 mm 4 mps 747 mmHg 76%
16:00 +12°C° 0 mm 4 mps 747 mmHg 79%
17:00 +12°C° 0 mm 4 mps 747 mmHg 81%
18:00 +12°C° 0 mm 4 mps 747 mmHg 83%
19:00 +12°C° 0 mm 5 mps 747 mmHg 86%
20:00 +12°C° 0 mm 4 mps 747 mmHg 88%
21:00 +11°C° 0 mm 4 mps 747 mmHg 90%
22:00 +11°C° 0 mm 4 mps 746 mmHg 91%
23:00 +11°C° 0 mm 4 mps 746 mmHg 92%

26 October, Monday

Time Temperature Precipitation Wind Pressure Humidity
00:00 +10°C° 0 mm 4 mps 752 mmHg 88%
01:00 +10°C° 0 mm 4 mps 751 mmHg 89%
02:00 +8°C° 0 mm 4 mps 751 mmHg 90%
03:00 +8°C° 0 mm 4 mps 751 mmHg 92%
04:00 +8°C° 0 mm 4 mps 751 mmHg 93%
05:00 +8°C° 0 mm 4 mps 750 mmHg 93%
06:00 +7°C° 0 mm 4 mps 750 mmHg 93%
07:00 +7°C° 0 mm 4 mps 750 mmHg 94%
08:00 +8°C° 0 mm 5 mps 750 mmHg 88%
09:00 +10°C° 0 mm 5 mps 749 mmHg 82%
10:00 +12°C° 0 mm 5 mps 749 mmHg 76%
11:00 +12°C° 0 mm 5 mps 749 mmHg 74%
12:00 +13°C° 0 mm 5 mps 748 mmHg 72%
13:00 +14°C° 0 mm 5 mps 748 mmHg 70%
14:00 +13°C° 0 mm 5 mps 748 mmHg 73%
15:00 +13°C° 0 mm 4 mps 747 mmHg 76%
16:00 +12°C° 0 mm 4 mps 747 mmHg 79%
17:00 +12°C° 0 mm 4 mps 747 mmHg 81%
18:00 +12°C° 0 mm 4 mps 747 mmHg 83%
19:00 +12°C° 0 mm 5 mps 747 mmHg 86%
20:00 +12°C° 0 mm 4 mps 747 mmHg 88%
21:00 +11°C° 0 mm 4 mps 747 mmHg 90%
22:00 +11°C° 0 mm 4 mps 746 mmHg 91%
23:00 +11°C° 0 mm 4 mps 746 mmHg 92%

27 October, Tuesday

Time Temperature Precipitation Wind Pressure Humidity
00:00 +11°C° 0 mm 4 mps 746 mmHg 92%
01:00 +10°C° 0 mm 4 mps 746 mmHg 92%
02:00 +10°C° 0 mm 4 mps 746 mmHg 91%
03:00 +10°C° 0 mm 4 mps 746 mmHg 90%
04:00 +10°C° 0 mm 4 mps 746 mmHg 89%
05:00 +11°C° 0 mm 4 mps 746 mmHg 88%
06:00 +11°C° 0 mm 4 mps 747 mmHg 87%
07:00 +11°C° 0 mm 4 mps 747 mmHg 86%
08:00 +12°C° 0 mm 4 mps 747 mmHg 82%
09:00 +13°C° 0 mm 4 mps 747 mmHg 79%
10:00 +14°C° 0 mm 5 mps 747 mmHg 75%
11:00 +15°C° 0 mm 5 mps 748 mmHg 73%
12:00 +15°C° 0 mm 4 mps 748 mmHg 70%
13:00 +17°C° 0 mm 4 mps 748 mmHg 68%
14:00 +15°C° 0 mm 4 mps 748 mmHg 71%
15:00 +14°C° 0 mm 3 mps 749 mmHg 75%
16:00 +15°C° 0 mm 2 mps 749 mmHg 78%
17:00 +14°C° 0 mm 2 mps 749 mmHg 81%
18:00 +13°C° 0 mm 2 mps 749 mmHg 84%
19:00 +13°C° 0 mm 2 mps 750 mmHg 87%
20:00 +13°C° 0 mm 2 mps 750 mmHg 86%
21:00 +13°C° 0 mm 2 mps 750 mmHg 84%
22:00 +14°C° 0 mm 2 mps 750 mmHg 83%
23:00 +13°C° 0 mm 2 mps 750 mmHg 85%

28 October, Wednesday

Time Temperature Precipitation Wind Pressure Humidity
00:00 +13°C° 0 mm 2 mps 750 mmHg 86%
01:00 +12°C° 0 mm 2 mps 750 mmHg 88%
02:00 +12°C° 0 mm 2 mps 750 mmHg 89%
03:00 +12°C° 0 mm 2 mps 750 mmHg 90%
04:00 +12°C° 0 mm 2 mps 750 mmHg 90%
05:00 +10°C° 0 mm 2 mps 751 mmHg 91%
06:00 +10°C° 0 mm 2 mps 751 mmHg 91%
07:00 +10°C° 0 mm 2 mps 751 mmHg 91%
08:00 +11°C° 0 mm 3 mps 751 mmHg 89%
09:00 +11°C° 0 mm 3 mps 751 mmHg 86%
10:00 +12°C° 0 mm 3 mps 751 mmHg 84%
11:00 +12°C° 0 mm 4 mps 751 mmHg 79%
12:00 +13°C° 0 mm 4 mps 752 mmHg 75%
13:00 +14°C° 0 mm 4 mps 752 mmHg 70%
14:00 +13°C° 0 mm 4 mps 752 mmHg 73%
15:00 +12°C° 0 mm 4 mps 752 mmHg 76%
16:00 +12°C° 0 mm 4 mps 752 mmHg 79%
17:00 +11°C° 0 mm 3 mps 753 mmHg 82%
18:00 +10°C° 0 mm 3 mps 753 mmHg 84%
19:00 +9°C° 0 mm 3 mps 753 mmHg 87%
20:00 +9°C° 0 mm 3 mps 753 mmHg 88%
21:00 +8°C° 0 mm 3 mps 754 mmHg 89%
22:00 +8°C° 0 mm 3 mps 754 mmHg 89%
23:00 +8°C° 0 mm 3 mps 754 mmHg 89%
Show more